FW8671 Weather Reports


time (UTC)temp
F
wind
direction
speed
knots
gust
knots
rain 1hr
in
rain 24hr
in
rain mn
in
humidity
%
barometer
mb
20260506201551 57 209 6.1 16.5 0.00 0.03 0.03 92 1009.7
20260506195428 57 236 8.7 15.6 0.00 0.03 0.03 92 1009.7
20260506194448 57 217 7.0 14.8 0.00 0.03 0.03 92 1010.0
20260506193443 57 224 7.0 15.6 0.00 0.03 0.03 92 1010.0
20260506192420 57 223 7.0 15.6 0.00 0.03 0.03 92 1010.0
20260506190328 57 232 7.8 16.5 0.00 0.03 0.03 92 1010.3
20260506185332 57 230 7.0 16.5 0.00 0.03 0.03 93 1010.2
20260506184332 57 195 7.8 13.9 0.00 0.03 0.03 92 1010.5
20260506183330 57 204 8.7 17.4 0.00 0.03 0.03 92 1011.0
20260506182312 57 223 7.8 18.2 0.00 0.03 0.03 93 1010.9
20260506181254 57 223 7.8 18.2 0.00 0.03 0.03 93 1011.2
20260506180310 57 193 7.0 14.8 0.05 0.03 0.03 93 1011.3
20260506175318 57 204 7.8 19.1 0.04 0.02 0.02 93 1011.3
20260506174341 57 238 7.8 19.1 0.04 0.02 0.02 93 1011.5
20260506173406 57 214 7.8 19.1 0.00 0.01 0.01 92 1011.5
20260506172354 57 219 8.7 21.7 0.00 0.00 0.00 92 1011.7
20260506165137 58 201 8.7 18.2 0.00 0.00 0.00 89 1012.2
20260506162959 58 241 8.7 22.6 0.00 0.00 0.00 89 1012.3
20260506162019 58 219 9.6 20.9 0.00 0.00 0.00 88 1012.2
20260506161016 58 193 10.4 20.9 0.00 0.00 0.00 88 1012.3
20260506160038 58 231 8.7 18.2 0.00 0.00 0.00 88 1012.5
20260506155049 59 205 8.7 19.1 0.00 0.00 0.00 88 1012.6
20260506154109 59 205 8.7 19.1 0.00 0.00 0.00 88 1012.8
20260506153047 59 249 9.6 19.1 0.00 0.00 0.00 87 1012.9
20260506152100 59 176 10.4 20.0 0.00 0.00 0.00 88 1012.8
20260506151038 59 207 9.6 20.0 0.00 0.00 0.00 87 1012.8
20260506150055 59 240 8.7 18.2 0.00 0.00 0.00 88 1012.6
20260506145111 59 200 8.7 20.9 0.00 0.00 0.00 88 1012.6
20260506144124 59 215 7.8 20.9 0.00 0.00 0.00 88 1012.7
20260506141949 59 206 8.7 19.1 0.00 0.00 0.00 87 1013.2
20260506140915 60 219 9.6 20.0 0.00 0.00 0.00 87 1013.2
20260506135844 59 167 8.7 20.0 0.00 0.00 0.00 87 1013.2
20260506134827 59 235 7.8 16.5 0.00 0.00 0.00 88 1013.4
20260506133832 59 227 9.6 19.1 0.00 0.00 0.00 88 1013.5
20260506132815 59 223 8.7 17.4 0.00 0.00 0.00 88 1013.3
20260506131805 59 210 7.0 16.5 0.00 0.00 0.00 88 1013.4
20260506125724 58 242 7.8 20.0 0.00 0.00 0.00 89 1013.2
20260506124724 58 215 8.7 21.7 0.00 0.00 0.00 89 1013.1
20260506122622 59 213 7.8 17.4 0.00 0.00 0.00 89 1013.5
20260506121603 58 236 8.7 18.2 0.00 0.00 0.00 89 1013.7
20260506120600 58 209 9.6 18.2 0.00 0.00 0.00 89 1013.6
20260506115551 58 240 8.7 18.2 0.00 0.00 0.00 89 1013.4
20260506114525 58 211 7.8 17.4 0.00 0.00 0.00 90 1013.3
20260506112407 57 191 6.1 14.8 0.00 0.00 0.00 91 1013.3
20260506111404 57 213 6.1 15.6 0.00 0.00 0.00 91 1013.5
20260506110409 57 226 5.2 16.5 0.00 0.00 0.00 91 1013.4
20260506105348 57 240 7.0 16.5 0.00 0.00 0.00 91 1013.3
20260506104329 57 222 7.0 15.6 0.00 0.00 0.00 91 1013.3
20260506103344 57 231 7.0 18.2 0.00 0.00 0.00 91 1013.2
20260506102331 57 233 7.0 18.2 0.00 0.00 0.00 92 1013.2
20260506101351 57 219 6.1 16.5 0.00 0.00 0.00 92 1013.1
20260506100410 57 216 7.8 16.5 0.00 0.00 0.00 91 1013.2
20260506095411 57 264 7.0 13.9 0.00 0.00 0.00 91 1013.2
20260506094433 57 232 7.0 13.9 0.00 0.00 0.00 91 1013.3
20260506093410 57 224 6.1 15.6 0.00 0.00 0.00 92 1013.1
20260506092350 57 199 6.1 15.6 0.00 0.00 0.00 91 1013.2
20260506091355 57 225 6.1 13.9 0.00 0.00 0.00 91 1013.3
20260506090402 57 256 6.1 19.1 0.00 0.00 0.00 91 1013.5
20260506085358 57 340 6.1 19.1 0.00 0.00 0.00 91 1013.4
20260506084352 57 260 7.0 15.6 0.00 0.00 0.00 91 1013.6
20260506083342 57 207 7.8 16.5 0.00 0.00 0.00 91 1013.5
20260506072939 57 236 8.7 17.4 0.00 0.00 0.00 89 1013.8
20260506071939 57 225 7.8 20.0 0.00 0.00 0.00 89 1013.9
20260506070927 58 221 9.6 20.0 0.00 0.00 0.00 89 1013.9
20260506062026 58 201 8.7 20.0 0.00 0.00 0.00 87 1013.7
20260506060955 58 244 8.7 19.1 0.00 0.00 0.00 87 1013.8
20260506050719 59 234 7.8 17.4 0.00 0.00 0.00 86 1014.0
20260506044706 59 255 10.4 22.6 0.00 0.00 0.00 86 1013.9
20260506042527 59 227 8.7 20.9 0.00 0.00 0.00 86 1014.0
20260506041535 59 229 7.8 20.0 0.00 0.00 0.00 85 1013.9
20260506035340 58 245 7.8 20.0 0.00 0.00 0.00 85 1014.1
20260506034340 58 232 7.8 21.7 0.00 0.00 0.00 86 1014.2
20260506033319 58 228 7.0 21.7 0.00 0.00 0.00 85 1014.1
20260506032258 58 279 8.7 20.9 0.00 0.00 0.00 85 1014.1
20260506031244 58 245 8.7 20.9 0.00 0.00 0.00 85 1014.1
20260506030227 58 215 8.7 19.1 0.00 0.00 0.00 85 1014.2
20260506025209 59 215 7.8 18.2 0.00 0.00 0.00 85 1014.1
20260506024146 59 207 7.8 17.4 0.00 0.00 0.00 85 1014.1
20260506023114 59 263 7.0 16.5 0.00 0.00 0.00 85 1014.2
20260506022055 59 217 7.8 15.6 0.00 0.00 0.00 85 1014.3
20260506021024 59 0 8.7 20.0 0.00 0.00 0.00 84 1014.2
20260506014945 59 236 8.7 20.0 0.00 0.00 0.00 84 1013.9
20260506013939 59 213 7.8 16.5 0.00 0.00 0.00 84 1013.9
20260506010658 60 234 10.4 22.6 0.00 0.00 0.00 82 1013.4
20260506005630 60 217 10.4 21.7 0.00 0.00 0.00 82 1013.5
20260506004644 60 215 10.4 24.3 0.00 0.00 0.00 81 1013.4
20260506002520 60 227 10.4 22.6 0.00 0.00 0.00 81 1013.1
20260506001512 60 340 12.2 26.1 0.00 0.00 0.00 81 1013.1
20260506000502 60 339 10.4 26.1 0.00 0.00 0.00 81 1012.9
20260505235521 60 236 10.4 23.5 0.00 0.00 0.00 82 1012.9
20260505234502 60 209 10.4 25.2 0.00 0.00 0.00 81 1012.5
20260505233436 60 178 11.3 25.2 0.00 0.00 0.00 81 1012.3
20260505230250 60 242 9.6 26.1 0.00 0.00 0.00 81 1012.1
20260505225240 60 203 10.4 26.1 0.00 0.00 0.00 81 1011.9
20260505223114 61 204 10.4 24.3 0.00 0.00 0.00 80 1011.9
20260505222134 61 248 11.3 24.3 0.00 0.00 0.00 80 1011.9
20260505221114 61 209 10.4 24.3 0.00 0.00 0.00 79 1011.7
20260505220104 61 208 10.4 21.7 0.00 0.00 0.00 79 1011.8
20260505215032 61 230 11.3 25.2 0.00 0.00 0.00 79 1011.7
20260505212900 62 182 12.2 26.1 0.00 0.00 0.00 79 1011.4
20260505211907 62 198 12.2 26.1 0.00 0.00 0.00 78 1011.4
20260505210856 62 238 11.3 23.5 0.00 0.00 0.00 79 1011.3
20260505204729 62 218 10.4 23.5 0.00 0.00 0.00 78 1011.3
20260505203736 62 200 10.4 20.9 0.00 0.00 0.00 78 1011.2
20260505202702 62 103 8.7 19.1 0.00 0.00 0.00 77 1011.3